[[{"header":{"parameterUnit":"m.s-1","parameterCategory":1,"la1":30.2991,"la2":30.254,"lo1":-89.0895,"lo2":-89.0444,"dy":0.0017,"dx":0.0017,"nx":28,"ny":28,"refTime":"2025-05-31T21:00:00:Z","depth":0,"parameterNumber":2,"parameterNumberName":"U-component_of_WINDS"},"data":[0,0,0,0,0,0,0,0,0,0,0,0,0,0,0,0,0,0,0,0,0,0,0,0,0,0,0,0,0,0,0,0,0,0,0,0,0,0,0,0,0,0,0,0,0,0,0,0,0,0,0,0,0,0,0,0,0,0,-0.13,-0.1299,0,-0.1202,-0.1201,-0.12,-0.1135,-0.1135,-0.1135,-0.1134,-0.1032,-0.103,-0.1028,0,0,0,0,0,0,0,0,0,0,0,0,0,-0.1433,-0.1431,-0.13,-0.1299,-0.1298,-0.1202,-0.1201,-0.1199,-0.1136,-0.1135,-0.1135,-0.1134,-0.1033,-0.103,-0.1028,0,0,0,0,0,0,0,0,0,0,0,0,0,-0.1359,-0.143,-0.13,-0.1254,-0.1249,-0.1202,-0.1201,-0.1199,-0.1136,-0.1135,-0.1134,-0.1134,-0.1034,-0.1031,-0.1027,-0.1018,0,0,-0.1017,-0.1015,0,0,0,0,0,0,0,0,-0.1363,-0.1354,-0.1262,-0.1258,-0.1252,-0.118,-0.121,-0.1138,-0.1136,-0.1179,-0.1134,-0.1134,-0.1082,-0.1075,-0.1057,-0.1013,-0.1009,-0.1016,-0.1014,-0.1013,-0.1012,0,0,0,0,0,0,0,-0.1369,-0.1358,-0.1261,-0.1261,-0.1255,-0.1239,-0.1228,-0.1196,-0.1135,-0.1175,-0.117,-0.1159,-0.1079,-0.1061,-0.1054,-0.1007,-0.1016,-0.1013,-0.1011,-0.101,-0.0951,-0.0952,0,0,0,0,0,0,-0.1381,-0.1363,-0.1264,-0.1258,-0.1307,-0.1237,-0.1224,-0.1204,-0.1135,-0.1124,-0.116,-0.1157,-0.1067,-0.1059,-0.1051,-0.1036,-0.1013,-0.1009,-0.1007,-0.0951,-0.0952,-0.0952,0,0,0,0,0,0,-0.1384,-0.1373,-0.1268,-0.1309,-0.1295,-0.1235,-0.1213,-0.1202,-0.1184,-0.1124,-0.1113,-0.1153,-0.1066,-0.1056,-0.1027,-0.1031,-0.1008,-0.1005,-0.095,-0.0951,-0.0952,-0.1006,0,0,0,0,0,0,-0.1388,-0.1374,-0.137,-0.131,-0.1293,-0.1246,-0.1213,-0.1201,-0.1178,-0.1173,-0.1114,-0.1104,-0.1065,-0.1032,-0.1023,-0.1026,-0.1002,-0.095,-0.0951,-0.0952,-0.1003,-0.1008,-0.1013,0,0,0,0,0,-0.1393,-0.1388,-0.137,-0.1359,-0.1286,-0.1246,-0.1237,-0.1193,-0.1179,-0.1174,-0.1136,-0.1106,-0.1033,-0.103,-0.1019,-0.1021,-0.0949,-0.095,-0.0952,-0.1001,-0.1007,-0.1012,0,0,0,0,0,0,-0.145,-0.138,-0.1358,-0.1334,-0.1297,-0.1236,-0.1228,-0.1201,-0.1166,-0.1163,-0.1109,-0.1096,-0.1073,-0.1044,-0.1043,-0.1009,-0.0987,-0.0987,-0.1029,-0.1034,-0.1039,-0.1046,-0.0999,0,0,0,0,0,-0.146,-0.1434,-0.1374,-0.1358,-0.1341,-0.1288,-0.1269,-0.1239,-0.1198,-0.1181,-0.1141,-0.1102,-0.1071,-0.1051,-0.1018,-0.0999,-0.0986,-0.0995,-0.1,-0.1004,-0.1004,-0.0993,-0.0996,-0.0956,-0.0956,-0.0956,0,0,-0.148,-0.1438,-0.1425,-0.1368,-0.1336,-0.131,-0.1275,-0.1249,-0.1229,-0.1177,-0.1148,-0.1117,-0.107,-0.1047,-0.1034,-0.1022,-0.1012,-0.1006,-0.1009,-0.1007,-0.0994,-0.0998,-0.1002,-0.0957,-0.0957,-0.0957,0,0,-0.1503,-0.1469,-0.1452,-0.1421,-0.1372,-0.1338,-0.1334,-0.1278,-0.1255,-0.1225,-0.1186,-0.1162,-0.1108,-0.1077,-0.1054,-0.1068,-0.1039,-0.1059,-0.1083,-0.1073,-0.1076,-0.1079,-0.1084,-0.1086,-0.1059,-0.1059,-0.1059,0,-0.1533,-0.1493,-0.1447,-0.1424,-0.1401,-0.1353,-0.1337,-0.1308,-0.1252,-0.1237,-0.1224,-0.1157,-0.1122,-0.1091,-0.1095,-0.1078,-0.1072,-0.1065,-0.1079,-0.1081,-0.1083,-0.1088,-0.109,-0.1062,-0.1062,-0.1061,-0.1061,0,-0.1533,-0.1506,-0.1499,-0.1446,-0.1422,-0.1403,-0.1354,-0.1335,-0.1308,-0.1275,-0.1245,-0.1202,-0.1161,-0.1151,-0.1123,-0.1117,-0.1111,-0.1089,-0.1066,-0.109,-0.1094,-0.1095,-0.1066,-0.1065,-0.1064,-0.1063,0,0,-0.1588,-0.1512,-0.151,-0.1486,-0.143,-0.1408,-0.1387,-0.1347,-0.1332,-0.1296,-0.1277,-0.1233,-0.1214,-0.1188,-0.1157,-0.1148,-0.1162,-0.1127,-0.1125,-0.1136,-0.1153,-0.117,-0.1172,-0.1143,-0.1143,-0.1144,-0.1157,0,-0.1603,-0.1562,-0.1521,-0.1494,-0.1469,-0.1425,-0.1406,-0.137,-0.134,-0.1314,-0.1279,-0.125,-0.1226,-0.121,-0.12,-0.1163,-0.1165,-0.1161,-0.1125,-0.1124,-0.1138,-0.1174,-0.1191,-0.1206,-0.1158,-0.1158,-0.1159,0,-0.1614,-0.158,-0.1552,-0.1499,-0.1487,-0.1471,-0.1432,-0.1408,-0.1367,-0.1345,-0.1318,-0.1285,-0.1261,-0.1241,-0.1208,-0.1206,-0.1189,-0.1169,-0.1169,-0.1163,-0.1143,-0.117,-0.1209,-0.1212,-0.116,-0.116,-0.116,0,-0.1657,-0.1605,-0.1581,-0.1562,-0.15,-0.149,-0.1464,-0.1422,-0.1402,-0.1368,-0.1354,-0.1317,-0.1297,-0.127,-0.1229,-0.1218,-0.12,-0.1177,-0.1181,-0.1183,-0.1179,-0.118,-0.1217,-0.1169,-0.1168,-0.1168,-0.1168,0,-0.1678,-0.1662,-0.16,-0.1585,-0.1567,-0.152,-0.1503,-0.1473,-0.1437,-0.1416,-0.1376,-0.1357,-0.1303,-0.1279,-0.1246,-0.1224,-0.1215,-0.1197,-0.1189,-0.12,-0.1203,-0.1188,-0.1186,-0.1169,-0.1169,-0.1169,-0.1169,0,-0.1723,-0.168,-0.1652,-0.1596,-0.1582,-0.1571,-0.1524,-0.1508,-0.1476,-0.145,-0.1441,-0.139,-0.1359,-0.1315,-0.1271,-0.1249,-0.1231,-0.1218,-0.1245,-0.124,-0.1247,-0.1248,-0.1276,-0.1278,-0.1229,-0.123,-0.123,0,-0.1739,-0.1726,-0.1669,-0.1653,-0.1628,-0.1602,-0.1581,-0.1535,-0.1515,-0.1468,-0.1458,-0.1424,-0.1394,-0.1347,-0.1306,-0.1272,-0.1258,-0.127,-0.1252,-0.1265,-0.1258,-0.1259,-0.1258,-0.1274,-0.1275,-0.1276,-0.1276,0,-0.1772,-0.1752,-0.1723,-0.1687,-0.1663,-0.1633,-0.16,-0.1589,-0.1536,-0.1516,-0.1484,-0.1461,-0.1416,-0.1383,-0.1344,-0.1317,-0.1288,-0.1282,-0.1281,-0.1293,-0.131,-0.1302,-0.1257,-0.1282,-0.1281,-0.1281,-0.128,-0.128,-0.1802,-0.1789,-0.1748,-0.1718,-0.1689,-0.166,-0.1643,-0.1609,-0.1581,-0.1541,-0.1516,-0.1486,-0.1446,-0.1391,-0.1366,-0.1342,-0.133,-0.1329,-0.1328,-0.1329,-0.1333,-0.1315,-0.1335,-0.1334,-0.1334,-0.1334,-0.1334,0,-0.1834,-0.1805,-0.1778,-0.1734,-0.1711,-0.1686,-0.1649,-0.1631,-0.1605,-0.1571,-0.1543,-0.1507,-0.1475,-0.1432,-0.1398,-0.1387,-0.1373,-0.1379,-0.138,-0.1374,-0.1346,-0.135,-0.1391,-0.1391,-0.1391,-0.1391,-0.1391,-0.1391,-0.1847,-0.1824,-0.1799,-0.1762,-0.1733,-0.1703,-0.1685,-0.1658,-0.1631,-0.1592,-0.1566,-0.1539,-0.1501,-0.1464,-0.1434,-0.1422,-0.1412,-0.1423,-0.1407,-0.1381,-0.1376,-0.1371,-0.1375,-0.1421,-0.1421,-0.1437,-0.1437,-0.1437]},{"header":{"parameterUnit":"m.s-1","parameterCategory":1,"la1":30.2991,"la2":30.254,"lo1":-89.0895,"lo2":-89.0444,"dy":0.0017,"dx":0.0017,"nx":28,"ny":28,"refTime":"2025-05-31T21:00:00:Z","depth":0,"parameterNumber":3,"parameterNumberName":"V-component_of_WINDS"},"data":[0,0,0,0,0,0,0,0,0,0,0,0,0,0,0,0,0,0,0,0,0,0,0,0,0,0,0,0,0,0,0,0,0,0,0,0,0,0,0,0,0,0,0,0,0,0,0,0,0,0,0,0,0,0,0,0,0,0,3.3503,3.3502,0,3.3451,3.345,3.3449,3.3481,3.3483,3.3484,3.3486,3.3426,3.3423,3.342,0,0,0,0,0,0,0,0,0,0,0,0,0,3.3624,3.3621,3.3503,3.3502,3.3501,3.3451,3.345,3.3449,3.3481,3.3483,3.3485,3.3486,3.3427,3.3423,3.342,0,0,0,0,0,0,0,0,0,0,0,0,0,3.3571,3.362,3.3503,3.3511,3.3512,3.3451,3.345,3.3449,3.348,3.3483,3.3485,3.3487,3.3428,3.3424,3.3419,3.3345,0,0,3.3405,3.3403,0,0,0,0,0,0,0,0,3.3574,3.3567,3.3511,3.3511,3.3511,3.3475,3.3471,3.3414,3.348,3.3492,3.3486,3.3488,3.344,3.3434,3.3419,3.3342,3.334,3.3405,3.3402,3.34,3.3399,0,0,0,0,0,0,0,3.3578,3.3569,3.3482,3.351,3.351,3.3516,3.3511,3.346,3.3453,3.3491,3.3493,3.3487,3.344,3.3424,3.3418,3.3339,3.3405,3.3401,3.3398,3.3396,3.3198,3.3196,0,0,0,0,0,0,3.3581,3.3572,3.3484,3.348,3.3549,3.3512,3.3506,3.3484,3.3454,3.3452,3.3485,3.3489,3.343,3.3423,3.3416,3.3327,3.34,3.3396,3.3393,3.32,3.3197,3.3195,0,0,0,0,0,0,3.3584,3.3573,3.3486,3.3527,3.3516,3.3507,3.3482,3.3482,3.3465,3.345,3.3448,3.347,3.3432,3.3423,3.3363,3.3325,3.3394,3.339,3.3203,3.32,3.3196,3.3148,0,0,0,0,0,0,3.3587,3.3574,3.3547,3.3526,3.3514,3.3435,3.348,3.3479,3.3458,3.3462,3.3435,3.3433,3.3433,3.337,3.3358,3.332,3.3386,3.3207,3.3202,3.3197,3.3153,3.3143,3.3135,0,0,0,0,0,3.3592,3.3534,3.3546,3.3535,3.348,3.3433,3.3425,3.3429,3.3455,3.3427,3.3417,3.3433,3.3332,3.3363,3.3351,3.3311,3.3209,3.3203,3.3198,3.3157,3.3145,3.3135,0,0,0,0,0,0,3.3549,3.3532,3.3544,3.3479,3.3457,3.3438,3.3403,3.3416,3.3385,3.339,3.3394,3.3387,3.3325,3.3312,3.3347,3.3238,3.3274,3.3266,3.3248,3.3236,3.3228,3.3231,3.3382,0,0,0,0,0,3.3532,3.3497,3.3483,3.3427,3.3416,3.3411,3.339,3.3395,3.3372,3.3362,3.3348,3.3323,3.3286,3.3261,3.3225,3.3152,3.3146,3.3119,3.311,3.3102,3.3094,3.3054,3.3041,3.3176,3.3176,3.3176,0,0,3.3497,3.3483,3.346,3.3418,3.3402,3.3363,3.3403,3.336,3.3331,3.3355,3.3298,3.3287,3.3259,3.3193,3.3163,3.318,3.3056,3.3095,3.3089,3.3085,3.3047,3.3034,3.3023,3.3172,3.3173,3.3173,0,0,3.3412,3.3399,3.3351,3.3334,3.331,3.3308,3.3296,3.3275,3.3269,3.3213,3.323,3.3195,3.313,3.311,3.3091,3.3,3.3013,3.2988,3.294,3.29,3.2889,3.288,3.2846,3.2834,3.2981,3.298,3.298,0,3.337,3.3315,3.3323,3.328,3.326,3.3283,3.3233,3.3216,3.318,3.3165,3.3187,3.3106,3.3089,3.3018,3.2996,3.298,3.2966,3.299,3.2891,3.2881,3.2873,3.284,3.2828,3.2977,3.2978,3.2978,3.2978,0,3.3264,3.3225,3.3188,3.3156,3.3133,3.3086,3.3085,3.306,3.3068,3.3062,3.3004,3.2985,3.2946,3.293,3.2935,3.2858,3.287,3.2891,3.2927,3.2857,3.2826,3.2814,3.2973,3.2974,3.2975,3.2976,0,0,3.3149,3.3123,3.3109,3.3095,3.3071,3.304,3.2994,3.2958,3.2936,3.2911,3.2871,3.2817,3.2836,3.2815,3.2818,3.2784,3.2712,3.2809,3.2808,3.279,3.2624,3.2607,3.2593,3.2722,3.2719,3.2717,3.2626,0,3.3061,3.2983,3.299,3.2915,3.2878,3.29,3.286,3.2839,3.2833,3.28,3.2793,3.2754,3.2783,3.277,3.2738,3.2728,3.2678,3.2734,3.2682,3.268,3.2686,3.2577,3.2559,3.2474,3.2614,3.2612,3.2611,0,3.2949,3.2922,3.2844,3.2826,3.2811,3.2774,3.2742,3.2711,3.2688,3.2686,3.2663,3.2673,3.2624,3.2664,3.2596,3.2635,3.2614,3.2606,3.2602,3.2596,3.264,3.2566,3.2447,3.2433,3.2593,3.2594,3.2595,0,3.2871,3.2815,3.2761,3.2749,3.2726,3.27,3.2689,3.2669,3.2647,3.2618,3.2604,3.2569,3.2549,3.2522,3.2521,3.255,3.2452,3.2492,3.2447,3.2447,3.2424,3.2425,3.2298,3.2413,3.2414,3.2414,3.2414,0,3.2771,3.2722,3.2726,3.2693,3.2638,3.2646,3.2591,3.2582,3.2564,3.2528,3.2545,3.251,3.2513,3.2477,3.2477,3.242,3.2411,3.2407,3.2407,3.2404,3.2405,3.2389,3.2394,3.2411,3.2411,3.2412,3.2413,0,3.2674,3.2675,3.2617,3.2602,3.2597,3.2557,3.2542,3.251,3.2506,3.246,3.245,3.2443,3.2403,3.24,3.2353,3.2352,3.2283,3.229,3.2291,3.2292,3.2247,3.225,3.2103,3.2084,3.2214,3.2213,3.2212,0,3.2609,3.2572,3.2553,3.2532,3.252,3.2484,3.2463,3.2469,3.2445,3.2417,3.2387,3.2349,3.2318,3.2252,3.2241,3.2205,3.221,3.2161,3.2204,3.2203,3.2207,3.2209,3.2204,3.2152,3.2151,3.2149,3.2148,0,3.2494,3.2497,3.2466,3.2436,3.241,3.2386,3.2363,3.2344,3.2348,3.232,3.228,3.2256,3.2209,3.2169,3.2134,3.2121,3.2134,3.2136,3.2123,3.2119,3.212,3.2117,3.2266,3.2138,3.2139,3.214,3.214,3.2141,3.241,3.2378,3.236,3.2325,3.231,3.2288,3.2257,3.2251,3.2218,3.2181,3.2187,3.2142,3.2119,3.2074,3.2058,3.2021,3.2038,3.202,3.2015,3.201,3.2004,3.2128,3.2015,3.2015,3.2016,3.2016,3.2016,0,3.2294,3.2285,3.2253,3.2222,3.2194,3.2213,3.2189,3.2164,3.2124,3.2104,3.2074,3.2027,3.199,3.1977,3.194,3.1913,3.1918,3.1903,3.1904,3.19,3.1993,3.2006,3.19,3.19,3.19,3.19,3.19,3.19,3.2231,3.2178,3.2178,3.2117,3.2107,3.2065,3.2049,3.2029,3.2013,3.1961,3.1931,3.1924,3.1906,3.1868,3.1834,3.1831,3.1816,3.1797,3.1797,3.1882,3.1894,3.1905,3.1918,3.1794,3.1794,3.1708,3.1707,3.1706]}]]